Temperature
18 18 18 18 18 18 18 18 18 18 18 17 17 17 17 17 17 18 18 18 18 18 17 17 17 17 17 17 17 17 17 17 16 16 16 16 16 16 16 16 16 16 15
18 18 18 18 18 18 18 18 18 18 18 17 17 17 17 17 17 18 18 17 17 17 17 17 17 17 17 17 17 17 17 16 16 16 16 16 16 16 16 16 16 15 15
18 18 18 18 18 18 18 18 17 17 17 17 17 17 17 17 17 17 17 17 17 17 17 17 17 17 17 17 17 17 16 16 16 16 16 16 16 16 16 16 16 15 15
18 18 18 18 18 18 18 18 18 17 17 17 17 17 17 17 17 17 17 17 17 17 17 17 17 17 17 17 17 17 16 16 16 16 16 16 16 16 16 16 16 16 15
18 18 18 18 18 18 18 18 18 18 18 17 17 17 17 17 17 17 17 17 17 17 17 17 17 17 17 17 17 17 16 16 16 16 16 16 16 16 16 16 15 15 15
18 18 18 18 18 18 18 18 18 18 18 18 17 17 17 17 17 17 17 17 17 17 17 17 17 17 17 17 17 16 16 16 16 16 16 16 16 16 16 15 15 15 15
18 18 18 18 18 18 18 18 18 18 18 17 17 17 17 17 17 17 17 17 17 17 17 17 17 17 17 17 16 16 16 16 16 16 16 16 16 16 16 15 15 15 15
18 18 18 18 18 18 18 18 18 18 18 18 17 17 17 17 18 17 17 17 17 17 17 17 17 17 17 17 16 16 16 16 16 16 16 16 16 16 15 15 15 15 15
18 18 18 18 18 18 18 18 18 18 18 18 18 18 18 18 18 18 18 17 17 17 17 17 17 17 17 17 17 16 16 16 16 16 16 16 16 15 15 15 15 15 15
18 18 18 18 18 18 18 18 18 18 18 18 18 18 18 18 18 18 18 17 17 17 17 17 17 17 17 17 17 16 16 16 16 16 16 16 16 15 15 15 15 15 15
18 18 18 18 18 18 18 18 18 18 18 18 18 18 18 18 18 18 18 17 17 17 17 17 17 17 17 17 17 16 16 16 16 16 16 15 15 15 15 15 15 15 15
18 18 18 18 18 18 18 18 18 18 18 18 18 18 18 18 18 18 18 18 18 17 17 17 17 17 17 17 16 16 16 16 16 16 15 15 15 15 15 15 15 15 15
18 18 18 18 18 18 18 18 18 18 18 18 18 18 18 18 18 18 18 18 17 17 17 17 17 17 17 16 16 16 16 16 16 15 15 15 15 15 15 15 14 14 14
18 18 18 18 18 17 17 17 17 17 17 17 17 17 18 18 18 18 18 18 17 17 16 16 16 16 16 16 16 16 16 15 15 15 15 15 15 14 14 14 14 14 14
18 18 17 17 17 17 17 17 17 17 17 17 17 17 17 18 18 18 18 18 18 17 16 16 16 16 16 16 15 15 15 15 15 14 14 14 14 14 13 13 13 13 13
17 17 17 17 17 17 17 17 17 17 17 17 17 17 17 17 17 17 17 17 17 17 16 16 15 15 15 15 15 15 14 14 14 14 14 13 13 13 13 13 13 12 12
17 17 17 17 17 17 17 17 17 17 17 17 17 17 17 17 17 17 17 17 17 17 17 16 15 15 15 14 14 14 14 14 13 13 13 12 12 12 12 12 12 11 11
17 17 17 17 17 17 17 17 17 16 16 16 16 16 16 16 16 17 17 17 17 16 16 16 15 14 14 14 14 13 13 13 13 12 12 12 11 11 11 11 11 10 10
17 17 17 17 17 16 16 16 16 16 16 16 16 16 16 16 16 16 16 16 16 16 15 15 15 14 13 13 13 13 12 12 12 11 11 11 11 10 10 10 10 9 9
17 17 16 16 16 16 16 16 16 16 16 16 15 15 15 16 16 15 15 15 15 15 15 14 14 13 13 13 12 12 12 11 11 10 10 10 10 9 9 9 9 8 8
16 16 16 16 16 16 16 16 16 15 15 15 15 15 15 15 15 15 15 14 14 14 14 14 13 13 12 12 12 11 11 11 10 10 10 9 9 9 8 8 8 7 7
16 16 16 16 16 16 15 15 15 15 15 15 14 14 14 14 14 14 14 14 13 13 13 13 12 12 12 11 11 11 10 10 9 9 9 8 8 8 8 7 7 7 6
16 16 15 15 15 15 15 15 15 15 14 14 14 14 14 14 14 13 13 13 13 12 12 12 12 11 11 10 10 10 9 9 9 8 8 8 7 7 7 6 6 6 6
15 15 15 15 15 15 14 14 14 14 14 14 13 13 13 13 13 13 12 12 12 11 11 11 11 10 10 9 9 9 9 8 8 8 7 7 7 6 6 6 6 5 5
15 15 15 14 14 14 14 14 14 13 13 13 13 12 12 12 12 11 12 11 11 10 10 10 9 9 9 8 8 8 8 8 7 7 7 6 6 6 6 5 5 5 5
14 14 14 14 14 13 13 13 13 13 13 12 12 11 11 11 11 10 10 10 10 9 9 8 8 8 8 8 7 7 7 7 7 6 6 6 5 5 5 5 5 4 4
Wind_Speed
5 6 6 7 7 7 6 5 4 4 3 3 5 7 8 9 10 11 13 15 15 15 14 14 13 13 12 11 11 11 10 10 10 10 9 9 9 8 8 7 7 6 6
8 6 5 6 7 8 8 7 6 4 3 3 4 7 9 10 11 11 12 14 14 15 14 14 13 13 12 12 11 11 11 10 10 10 9 9 9 8 8 8 7 7 7
11 8 5 5 6 8 8 6 4 3 2 3 3 6 7 9 11 11 12 12 13 13 14 14 14 13 12 12 11 11 11 11 11 11 10 10 9 8 8 8 8 7 7
13 10 5 5 8 8 6 3 3 3 2 2 3 3 5 7 9 11 12 12 12 11 13 14 14 13 13 12 12 12 12 11 12 11 11 11 10 9 9 8 8 8 8
13 10 6 5 8 6 4 4 3 3 3 3 3 3 3 4 6 10 10 12 13 12 13 14 14 14 14 13 13 13 12 12 12 12 11 11 11 10 10 10 9 9 10
12 10 6 6 7 4 4 3 3 2 2 3 2 1 1 3 4 5 8 10 12 13 13 13 14 14 15 14 14 13 13 13 13 12 12 11 11 11 11 10 10 10 10
11 9 5 5 5 5 5 5 4 3 2 2 2 2 3 1 3 4 5 6 9 12 13 14 13 13 12 14 15 14 14 13 13 13 12 12 11 11 11 11 11 11 11
11 9 6 5 5 5 5 5 4 3 1 2 3 2 2 3 2 2 3 5 6 8 9 12 12 12 11 10 12 14 14 13 12 12 11 11 10 11 11 11 11 11 11
11 9 8 5 5 5 5 5 5 5 3 1 2 4 3 3 2 2 2 3 4 4 5 9 11 12 12 11 11 12 13 12 11 10 9 9 9 9 9 10 10 11 11
9 10 9 7 6 5 6 6 5 4 5 3 1 2 3 4 3 1 2 1 3 4 4 5 8 10 11 11 11 11 11 10 10 9 8 8 8 8 8 9 9 9 10
6 9 9 7 6 5 6 6 5 5 4 4 3 2 1 1 2 3 1 1 1 1 3 3 3 5 8 9 9 10 10 9 9 8 7 6 6 6 6 6 5 5 5
4 6 7 6 5 5 5 5 5 6 4 4 3 3 3 3 3 3 3 2 1 1 0 1 1 3 5 7 7 7 8 7 6 5 4 3 2 1 1 1 2 3 3
4 6 6 5 5 5 5 5 5 5 5 5 4 3 3 3 3 4 4 2 1 0 1 1 1 2 4 5 6 8 8 7 5 4 3 2 2 2 3 3 3 4 5
6 6 6 6 6 6 6 5 4 4 4 4 4 4 2 2 3 4 4 4 3 1 2 1 2 4 6 7 8 8 8 8 7 7 6 6 7 7 7 7 7 7 8
5 6 6 7 6 6 6 6 4 4 4 4 4 3 2 1 2 2 3 4 5 3 1 0 1 2 5 8 8 9 9 9 9 9 9 8 8 8 9 9 9 9 9
6 6 7 7 6 6 6 6 4 4 5 3 3 3 2 1 2 2 3 3 4 5 3 1 1 2 5 7 8 9 10 10 10 10 9 9 9 9 9 9 10 10 10
5 6 6 6 6 6 6 6 5 5 5 4 3 4 3 3 3 3 3 3 3 4 5 2 3 3 4 5 7 9 8 9 9 9 9 8 9 9 9 10 10 10 11
5 5 6 6 7 7 6 7 6 5 5 5 4 4 4 4 5 4 4 4 4 4 6 6 3 3 4 4 5 6 7 8 9 9 9 9 9 9 9 10 9 9 9
4 5 5 6 6 6 7 6 6 5 5 4 4 5 5 6 6 4 5 5 4 5 6 6 4 3 4 3 4 5 6 6 7 8 8 9 9 8 8 8 7 6 6
4 4 5 5 6 6 6 6 6 6 6 5 5 5 4 6 6 6 5 5 6 7 7 7 5 3 3 2 4 4 4 3 3 7 8 8 8 8 7 5 4 4 4
4 4 5 5 5 5 6 8 7 8 8 7 6 6 6 9 9 7 6 5 7 7 7 7 5 4 4 3 2 1 3 2 3 4 4 6 7 7 7 6 5 5 5
4 4 5 5 5 5 9 11 11 9 9 9 9 8 8 10 13 15 14 11 9 9 8 6 5 5 3 2 2 3 3 3 2 3 3 3 5 3 5 5 6 7 8
5 5 5 5 6 7 10 12 12 10 9 8 8 8 8 8 10 10 14 16 14 13 10 8 7 5 4 2 3 4 4 4 2 2 2 2 3 2 4 6 8 9 10
5 5 5 6 7 8 11 12 13 10 9 8 7 7 9 8 8 10 11 11 9 8 9 8 8 6 5 4 4 4 4 4 3 4 4 2 3 2 4 6 9 11 11
6 5 6 7 8 8 11 12 12 9 9 8 7 7 8 8 11 13 12 11 10 8 13 15 14 12 11 10 8 5 4 5 3 3 3 2 2 2 3 3 8 11 12
6 6 6 7 8 8 9 12 12 9 10 8 7 7 9 10 11 11 10 10 9 6 6 8 9 9 9 10 9 6 4 4 2 1 2 2 1 2 3 3 6 10 11
Wind_Direction
162 167 172 177 182 180 176 176 185 199 205 180 161 156 154 155 159 161 168 171 170 167 167 170 171 170 168 168 167 167 167 166 165 165 165 166 167 167 169 169 166 163 165
166 166 168 179 188 186 181 180 190 191 188 168 158 158 160 161 166 169 171 176 176 175 174 176 178 178 178 178 179 179 179 176 175 176 176 177 179 181 181 182 181 179 179
168 165 160 175 187 182 175 174 180 168 160 158 156 159 164 166 169 173 175 178 181 183 183 183 185 186 187 188 188 188 188 187 187 189 190 191 193 195 193 192 192 195 198
169 162 163 177 180 171 163 158 158 150 158 161 167 170 162 168 173 178 180 183 184 189 193 192 192 193 194 196 197 197 197 198 198 199 201 201 203 206 205 205 206 210 213
169 163 168 176 170 160 161 172 153 153 161 174 184 175 174 173 180 182 185 190 191 195 198 202 202 201 202 204 204 204 203 206 207 209 210 211 213 216 218 219 221 223 225
169 164 167 170 158 148 158 157 148 147 154 166 165 140 178 188 189 188 190 192 197 202 204 204 207 211 214 214 213 213 213 213 214 216 218 219 221 223 226 228 231 233 234
170 164 166 165 158 161 173 164 144 143 146 135 95 39 0 332 210 210 194 186 197 203 204 207 209 212 219 224 224 223 223 221 220 221 222 222 224 227 230 232 236 239 241
174 172 162 166 166 160 159 159 146 140 161 148 136 111 17 342 314 237 205 198 200 196 200 206 207 211 217 221 225 228 228 228 229 228 226 225 228 233 235 237 240 243 246
181 175 169 163 166 164 169 174 162 152 165 186 159 147 152 214 276 314 249 210 192 187 197 201 206 210 212 215 220 226 229 227 228 230 230 229 231 237 242 246 246 248 251
184 178 174 170 167 168 173 181 171 159 151 173 192 187 173 160 159 240 319 263 191 192 198 203 210 209 210 212 216 221 224 226 227 227 229 231 234 240 246 249 250 253 257
191 180 176 170 166 169 176 176 164 162 160 167 174 170 161 147 140 146 203 275 306 236 205 194 193 198 202 203 204 212 213 215 219 222 227 233 240 245 248 252 260 266 271
195 184 176 172 171 171 175 178 172 168 168 160 161 161 164 165 183 163 175 203 210 268 149 150 154 171 175 181 189 188 188 193 198 204 206 205 212 226 275 309 331 334 331
195 198 185 177 178 184 181 174 168 174 171 165 170 174 177 193 177 162 156 171 176 275 55 53 67 129 136 140 152 158 161 166 159 145 138 135 123 96 71 59 52 42 34
200 195 188 183 183 182 184 175 171 177 171 175 181 175 170 198 178 169 165 154 136 61 44 53 34 71 108 115 124 129 125 130 125 118 108 98 89 83 79 73 68 61 53
200 191 188 188 189 185 178 167 170 177 168 173 176 171 170 190 160 161 159 156 151 156 179 187 74 54 109 109 115 116 114 115 114 111 104 96 90 86 82 78 73 68 60
194 181 185 188 189 182 170 157 156 162 155 164 162 153 155 141 105 112 136 139 146 149 153 148 96 84 97 102 98 103 103 103 104 107 103 96 91 89 86 83 77 71 62
183 179 178 180 178 173 166 155 156 153 154 154 151 144 140 128 115 101 100 105 117 124 130 109 60 62 72 85 86 93 94 95 94 99 102 96 90 89 90 90 83 75 67
179 175 173 175 177 170 162 154 157 157 151 151 150 132 126 117 103 100 102 102 108 116 130 127 89 61 68 86 96 92 85 91 91 94 98 94 90 94 100 99 92 84 73
172 170 165 168 167 161 157 156 154 150 141 137 135 131 129 120 107 99 97 101 104 106 107 122 116 78 67 72 75 73 76 75 83 79 82 83 83 88 106 107 100 93 77
164 169 165 160 157 152 150 147 142 132 120 107 105 110 113 118 121 114 105 106 109 106 106 112 107 85 69 60 77 74 63 43 59 63 64 70 70 71 83 91 81 73 59
148 147 142 141 143 146 149 145 139 132 121 109 98 94 99 106 108 108 112 112 114 112 110 110 104 90 75 72 78 72 83 67 49 43 56 56 55 50 49 49 44 30 18
125 120 127 133 134 143 142 141 138 131 128 124 115 100 92 89 92 89 90 93 106 119 124 117 113 111 109 95 87 95 96 82 44 6 58 40 45 35 26 32 23 12 5
119 117 119 122 125 130 132 132 132 131 128 128 125 121 111 100 93 94 86 81 78 85 104 125 122 123 125 136 110 91 87 94 95 325 72 37 6 3 5 16 14 5 1
118 121 122 123 122 123 123 123 120 115 112 111 114 118 118 113 109 107 100 88 77 70 86 95 108 108 113 112 110 123 120 100 66 21 51 65 348 343 349 6 10 3 358
114 114 116 117 119 118 120 122 118 113 108 101 101 106 115 114 116 111 107 102 91 78 85 94 96 94 89 89 97 90 82 85 59 360 8 78 344 342 341 331 343 349 349
117 111 107 113 121 124 124 123 122 120 116 109 97 97 108 116 119 115 112 112 108 104 99 88 77 72 71 70 76 97 121 113 104 12 327 65 2 12 350 316 317 332 340
Height
1566 1568 1569 1571 1572 1574 1575 1576 1577 1579 1580 1581 1582 1582 1583 1584 1585 1586 1586 1587 1588 1589 1589 1590 1591 1592 1593 1594 1595 1596 1597 1598 1598 1599 1600 1600 1601 1601 1602 1602 1602 1603 1603
1566 1568 1570 1571 1573 1574 1575 1577 1578 1579 1580 1581 1582 1583 1584 1585 1585 1586 1587 1588 1588 1589 1590 1591 1592 1593 1594 1594 1595 1596 1597 1598 1599 1599 1600 1600 1601 1601 1602 1602 1602 1602 1603
1566 1568 1570 1571 1573 1574 1575 1577 1578 1579 1581 1582 1582 1583 1584 1585 1586 1587 1587 1588 1589 1589 1590 1591 1592 1593 1594 1594 1595 1596 1597 1598 1598 1599 1600 1600 1601 1601 1601 1602 1602 1602 1602
1566 1568 1569 1571 1572 1574 1575 1577 1578 1579 1580 1582 1583 1583 1584 1585 1586 1587 1587 1588 1589 1589 1590 1591 1592 1592 1593 1594 1595 1596 1597 1597 1598 1599 1599 1600 1600 1601 1601 1601 1601 1602 1602
1566 1567 1569 1570 1572 1573 1575 1576 1578 1579 1580 1581 1582 1583 1584 1585 1586 1587 1587 1588 1589 1589 1590 1591 1591 1592 1593 1594 1595 1595 1596 1597 1597 1598 1598 1599 1600 1600 1600 1600 1601 1601 1601
1565 1567 1568 1570 1571 1573 1574 1575 1577 1578 1580 1581 1582 1583 1584 1584 1585 1586 1587 1588 1588 1589 1590 1590 1591 1591 1592 1593 1594 1594 1595 1596 1596 1597 1597 1598 1598 1599 1599 1599 1599 1599 1599
1564 1565 1567 1568 1570 1571 1573 1575 1576 1577 1579 1580 1581 1582 1583 1584 1584 1585 1586 1587 1587 1588 1589 1590 1590 1591 1591 1592 1593 1593 1594 1595 1595 1596 1596 1596 1597 1597 1597 1598 1598 1598 1598
1562 1564 1565 1567 1569 1570 1572 1573 1574 1576 1577 1579 1580 1581 1582 1584 1583 1584 1585 1585 1586 1587 1587 1588 1589 1590 1590 1591 1591 1592 1593 1593 1594 1594 1595 1595 1595 1596 1596 1596 1596 1596 1596
1560 1562 1564 1566 1567 1569 1570 1571 1573 1574 1576 1577 1578 1580 1580 1580 1581 1582 1583 1584 1585 1585 1586 1587 1587 1588 1589 1590 1590 1591 1592 1592 1592 1592 1593 1593 1594 1594 1594 1594 1594 1593 1593
1558 1560 1562 1564 1565 1567 1568 1570 1571 1573 1574 1575 1577 1578 1579 1579 1580 1580 1582 1582 1583 1584 1585 1585 1586 1586 1587 1588 1589 1589 1590 1591 1591 1591 1591 1592 1592 1592 1592 1592 1591 1591 1591
1556 1558 1560 1562 1563 1565 1567 1568 1569 1571 1572 1574 1575 1576 1577 1577 1578 1579 1579 1580 1582 1582 1583 1584 1584 1585 1586 1586 1587 1588 1588 1589 1589 1589 1590 1590 1590 1589 1589 1589 1588 1588 1588
1553 1555 1557 1559 1561 1563 1564 1566 1567 1569 1570 1572 1573 1574 1575 1575 1576 1577 1577 1578 1579 1580 1581 1582 1582 1583 1584 1585 1585 1586 1587 1587 1587 1587 1587 1587 1587 1587 1586 1586 1585 1585 1585
1550 1552 1554 1556 1558 1560 1562 1563 1565 1566 1568 1569 1570 1571 1572 1573 1574 1575 1575 1576 1577 1579 1579 1580 1581 1581 1582 1583 1583 1584 1585 1585 1585 1585 1585 1585 1584 1584 1583 1583 1582 1582 1581
1547 1549 1551 1553 1555 1557 1559 1560 1562 1564 1565 1566 1568 1569 1570 1571 1571 1572 1573 1574 1575 1577 1577 1578 1579 1579 1580 1581 1581 1582 1582 1583 1583 1583 1583 1582 1582 1581 1580 1580 1579 1578 1578
1544 1546 1548 1550 1552 1554 1555 1557 1559 1561 1562 1563 1565 1566 1567 1568 1569 1570 1571 1572 1573 1573 1575 1576 1577 1577 1578 1579 1579 1580 1580 1581 1581 1581 1580 1580 1579 1579 1578 1577 1576 1575 1574
1540 1542 1544 1546 1548 1550 1552 1554 1556 1558 1559 1560 1562 1563 1564 1565 1566 1567 1568 1569 1570 1571 1572 1573 1574 1575 1576 1576 1577 1578 1578 1579 1579 1578 1578 1578 1577 1576 1575 1574 1573 1573 1571
1537 1539 1541 1542 1544 1546 1549 1551 1553 1555 1556 1557 1559 1560 1561 1562 1563 1564 1565 1566 1568 1569 1569 1571 1572 1574 1574 1575 1575 1576 1576 1576 1576 1576 1576 1576 1575 1574 1573 1572 1571 1570 1569
1534 1535 1537 1539 1541 1543 1545 1547 1550 1551 1553 1555 1556 1557 1558 1559 1560 1561 1562 1564 1565 1566 1567 1568 1570 1571 1572 1573 1574 1574 1574 1575 1574 1574 1574 1573 1573 1572 1571 1570 1569 1568 1566
1531 1532 1534 1536 1538 1540 1542 1544 1547 1548 1550 1552 1553 1555 1556 1557 1558 1559 1560 1561 1563 1564 1565 1566 1567 1569 1570 1571 1571 1572 1572 1572 1572 1572 1572 1572 1571 1570 1569 1568 1567 1566 1564
1528 1529 1531 1533 1535 1537 1539 1541 1543 1545 1547 1549 1550 1552 1553 1554 1555 1556 1558 1559 1561 1562 1563 1564 1565 1566 1568 1568 1569 1570 1570 1570 1570 1571 1570 1570 1569 1569 1568 1567 1565 1564 1562
1526 1527 1529 1531 1532 1534 1536 1538 1540 1542 1544 1546 1548 1549 1551 1552 1553 1554 1556 1557 1559 1560 1561 1562 1563 1564 1565 1566 1566 1567 1568 1568 1568 1569 1568 1568 1567 1567 1566 1565 1564 1562 1561
1524 1526 1527 1528 1530 1531 1533 1536 1538 1540 1542 1544 1546 1547 1549 1550 1551 1553 1554 1556 1557 1558 1559 1560 1561 1562 1562 1563 1564 1565 1565 1566 1566 1567 1567 1566 1566 1565 1564 1563 1562 1560 1559
1523 1524 1525 1526 1528 1530 1532 1534 1536 1538 1540 1542 1544 1545 1546 1548 1550 1551 1552 1554 1555 1556 1558 1559 1559 1560 1561 1561 1562 1563 1563 1564 1564 1565 1565 1565 1564 1563 1562 1561 1560 1558 1557
1521 1522 1523 1525 1526 1528 1530 1532 1534 1536 1538 1540 1542 1543 1545 1546 1548 1550 1551 1552 1553 1555 1556 1557 1558 1559 1560 1560 1561 1562 1562 1562 1563 1563 1564 1563 1563 1562 1561 1560 1558 1556 1554
1519 1520 1521 1523 1525 1527 1529 1531 1532 1534 1536 1537 1540 1541 1543 1545 1546 1548 1550 1550 1552 1553 1555 1556 1557 1558 1559 1559 1560 1561 1561 1561 1561 1562 1562 1562 1561 1560 1559 1558 1556 1555 1553
1518 1519 1520 1521 1523 1525 1527 1529 1531 1532 1534 1536 1538 1540 1542 1544 1546 1547 1549 1549 1551 1552 1554 1555 1556 1557 1558 1559 1559 1559 1560 1560 1560 1561 1561 1560 1559 1558 1557 1557 1555 1553 1551